TimeMST,TemperatureF,Dew PointF,Humidity,Sea Level PressureIn,VisibilityMPH,Wind Direction,Wind SpeedMPH,Gust SpeedMPH,PrecipitationIn,Events,Conditions,WindDirDegrees,DateUTC
12:53 AM,50.0,8.1,18,30.25,10.0,Calm,Calm,-,N/A,,Clear,0,2013-05-03 07:53:00
1:53 AM,48.9,9.0,20,30.23,10.0,Calm,Calm,-,N/A,,Clear,0,2013-05-03 08:53:00
2:53 AM,46.9,10.0,22,30.21,10.0,Calm,Calm,-,N/A,,Clear,0,2013-05-03 09:53:00
3:53 AM,46.0,9.0,22,30.20,10.0,Calm,Calm,-,N/A,,Clear,0,2013-05-03 10:53:00
4:53 AM,46.0,9.0,22,30.20,10.0,Calm,Calm,-,N/A,,Clear,0,2013-05-03 11:53:00
5:53 AM,46.9,7.0,20,30.19,10.0,SW,4.6,-,N/A,,Clear,230,2013-05-03 12:53:00
6:53 AM,48.0,9.0,21,30.18,10.0,SE,4.6,-,N/A,,Clear,140,2013-05-03 13:53:00
7:53 AM,53.1,8.1,16,30.18,10.0,Calm,Calm,-,N/A,,Clear,0,2013-05-03 14:53:00
8:53 AM,55.9,9.0,15,30.16,10.0,Calm,Calm,-,N/A,,Clear,0,2013-05-03 15:53:00
9:53 AM,57.9,9.0,14,30.14,10.0,NNW,5.8,-,N/A,,Clear,330,2013-05-03 16:53:00
10:53 AM,62.1,8.1,12,30.11,10.0,Variable,3.5,-,N/A,,Clear,0,2013-05-03 17:53:00
11:53 AM,66.0,7.0,10,30.06,10.0,Variable,6.9,-,N/A,,Clear,0,2013-05-03 18:53:00
12:53 PM,66.9,3.9,8,30.01,10.0,Variable,3.5,-,N/A,,Clear,0,2013-05-03 19:53:00
1:53 PM,70.0,3.9,7,29.97,10.0,North,10.4,-,N/A,,Clear,10,2013-05-03 20:53:00
2:53 PM,71.1,-0.9,6,29.93,10.0,North,5.8,-,N/A,,Clear,350,2013-05-03 21:53:00
3:53 PM,72.0,-0.9,6,29.88,10.0,Calm,Calm,-,N/A,,Clear,0,2013-05-03 22:53:00
4:53 PM,72.0,1.0,6,29.86,10.0,Calm,Calm,-,N/A,,Clear,0,2013-05-03 23:53:00
5:53 PM,73.0,1.0,6,29.82,10.0,NE,5.8,-,N/A,,Clear,40,2013-05-04 00:53:00
6:53 PM,70.0,1.0,7,29.81,10.0,NE,5.8,-,N/A,,Clear,40,2013-05-04 01:53:00
7:53 PM,64.9,6.1,10,29.82,9.0,Calm,Calm,-,N/A,,Clear,0,2013-05-04 02:53:00
8:53 PM,62.1,8.1,12,29.82,10.0,Calm,Calm,-,N/A,,Clear,0,2013-05-04 03:53:00
9:53 PM,60.1,5.0,11,29.82,10.0,SE,4.6,-,N/A,,Clear,140,2013-05-04 04:53:00
10:53 PM,60.1,7.0,12,29.80,10.0,South,3.5,-,N/A,,Clear,170,2013-05-04 05:53:00
11:53 PM,59.0,6.1,12,29.79,10.0,SSW,4.6,-,N/A,,Clear,210,2013-05-04 06:53:00